EW5526 Partanna IT current weather conditions

sailwx.info

Wind from 270 at 2 knots gusting 5

Air temperature 7.2° C
Dewpoint 3.3° C

Last reported at 2019-Dec-11 20:57 UTC.
Time now 2019-Dec-11 22:14 UTC

Location: N 37°44' E 012°54'.
View on Google Maps.

See reports from other nearby stations

  
Tides and Currents Weather Stations Pressure Air Temp Water Temp Dewpoint Dewpoint Depression Visibility Wind Speed Wind Dir Waves Ship Positions
date/time (UTC)wind fromknots sea level pressurealtimeterstation pressurevisibilityair tempwater tempwave heightnotes
2019-Dec-11 20:57 270 2 gusting 5 7.2
2019-Dec-11 20:52 270 0 gusting 5 7.2
2019-Dec-11 20:47 270 0 gusting 5 7.8
2019-Dec-11 20:42 268 7.8
2019-Dec-11 20:37 264 2 gusting 6 7.8
2019-Dec-11 20:32 271 1 gusting 6 7.8
2019-Dec-11 20:27 268 7.8
2019-Dec-11 20:22 263 1 gusting 6 7.8
2019-Dec-11 20:17 270 1 gusting 5 7.8
2019-Dec-11 20:12 268 4 gusting 5 7.8
2019-Dec-11 20:07 205 4 gusting 5 7.8
2019-Dec-11 20:02 268 7.8
2019-Dec-11 19:57 212 1 gusting 5 7.8
2019-Dec-11 19:52 270 7.8
2019-Dec-11 19:47 270 2 gusting 6 7.8
2019-Dec-11 19:42 270 7.8
2019-Dec-11 19:37 270 7.8
2019-Dec-11 19:32 270 5 gusting 8 7.8
2019-Dec-11 19:27 268 0 gusting 6 7.8
2019-Dec-11 19:22 268 0 gusting 6 7.2
2019-Dec-11 19:17 270 7.2
2019-Dec-11 19:12 268 7.2
2019-Dec-11 19:07 257 7.2
2019-Dec-11 19:02 270 7.2
2019-Dec-11 18:57 267 5 gusting 5 7.2
2019-Dec-11 18:52 265 7.2
2019-Dec-11 18:47 157 5 gusting 5 7.2
2019-Dec-11 18:42 260 5 gusting 5 7.2
2019-Dec-11 18:37 268 7.2
2019-Dec-11 18:32 253 2 gusting 7 7.2
2019-Dec-11 18:27 270 7.8
2019-Dec-11 18:22 270 5 gusting 6 7.8
2019-Dec-11 18:17 270 6 gusting 6 7.8
2019-Dec-11 18:12 270 2 gusting 9 7.8
2019-Dec-11 18:07 270 4 gusting 9 7.8
2019-Dec-11 18:02 265 5 gusting 8 7.8
2019-Dec-11 17:57 265 6 gusting 6 7.8
2019-Dec-11 17:52 263 3 gusting 8 7.8
2019-Dec-11 17:47 270 4 gusting 8 7.8
2019-Dec-11 17:42 270 4 gusting 7 8.3
2019-Dec-11 17:37 261 5 gusting 6 8.3
2019-Dec-11 17:32 270 5 gusting 6 7.8
2019-Dec-11 17:27 268 4 gusting 6 7.8
2019-Dec-11 17:22 263 4 gusting 9 7.8
2019-Dec-11 17:17 270 6 gusting 9 7.8
2019-Dec-11 17:12 271 1 gusting 9 7.8
2019-Dec-11 17:07 270 1 gusting 9 7.8
2019-Dec-11 17:02 270 2 gusting 8 7.8
2019-Dec-11 16:57 270 1 gusting 9 7.8
2019-Dec-11 16:52 270 3 gusting 9 7.8
2019-Dec-11 16:47 270 0 gusting 10 7.8
2019-Dec-11 16:42 268 1 gusting 10 7.8
2019-Dec-11 16:37 267 4 gusting 11 7.8
2019-Dec-11 16:32 270 5 gusting 11 7.8
2019-Dec-11 16:27 270 4 gusting 10 7.8
2019-Dec-11 16:22 270 1 gusting 12 7.8
2019-Dec-11 16:17 264 3 gusting 12 7.8
2019-Dec-11 16:12 265 2 gusting 10 7.8
2019-Dec-11 16:07 244 3 gusting 10 7.8
2019-Dec-11 16:02 095 2 gusting 12 7.8
2019-Dec-11 15:57 264 3 gusting 12 7.8
2019-Dec-11 15:52 268 7 gusting 12 8.3
2019-Dec-11 15:47 260 6 gusting 12 8.3
2019-Dec-11 15:42 248 8 gusting 10 8.3
2019-Dec-11 15:37 246 6 gusting 10 8.3
2019-Dec-11 15:32 270 6 gusting 10 8.3
2019-Dec-11 15:27 243 8 gusting 8 8.3
2019-Dec-11 15:22 265 4 gusting 11 8.9
2019-Dec-11 15:17 261 4 gusting 11 8.9
2019-Dec-11 15:12 279 4 gusting 13 8.9
2019-Dec-11 15:07 268 5 gusting 14 8.9
2019-Dec-11 15:02 268 6 gusting 14 8.9
2019-Dec-11 14:57 255 5 gusting 10 8.9
2019-Dec-11 14:52 263 6 gusting 14 8.9
2019-Dec-11 14:47 062 0 gusting 14 9.4
2019-Dec-11 14:42 253 6 gusting 11 9.4
2019-Dec-11 14:37 268 6 gusting 12 9.4
2019-Dec-11 14:32 271 4 gusting 12 9.4
2019-Dec-11 14:27 270 8 gusting 11 10.0
2019-Dec-11 14:22 263 9 gusting 13 10.0
2019-Dec-11 14:17 255 9 gusting 16 9.4
2019-Dec-11 14:12 265 9 gusting 16 9.4
2019-Dec-11 14:07 282 1 gusting 13 9.4
2019-Dec-11 14:02 092 2 gusting 13 9.4
2019-Dec-11 13:57 096 2 gusting 15 9.4
2019-Dec-11 13:52 265 8 gusting 16 9.4
2019-Dec-11 13:47 258 5 gusting 16 10.0
2019-Dec-11 13:42 270 6 gusting 8 10.0
2019-Dec-11 13:37 268 5 gusting 9 10.0
2019-Dec-11 13:32 263 8 gusting 9 10.0
2019-Dec-11 13:27 270 10.0
2019-Dec-11 13:22 270 1 gusting 10 10.0
2019-Dec-11 13:17 268 4 gusting 10 10.6
2019-Dec-11 13:12 248 3 gusting 10 11.1
2019-Dec-11 13:07 270 4 gusting 10 11.1
2019-Dec-11 13:02 271 1 gusting 9 11.1
2019-Dec-11 12:57 220 11.1
2019-Dec-11 12:52 265 8 gusting 14 11.1
2019-Dec-11 12:47 263 12 gusting 12 10.6
2019-Dec-11 12:42 219 7 gusting 9 11.1
2019-Dec-11 12:37 267 6 gusting 9 11.1
2019-Dec-11 12:32 263 5 gusting 12 11.1
2019-Dec-11 12:27 270 2 gusting 12 11.1
2019-Dec-11 12:22 265 11.1
2019-Dec-11 12:17 260 11 gusting 11 11.1
2019-Dec-11 12:12 268 5 gusting 11 11.1
2019-Dec-11 12:07 268 1 gusting 11 11.1
2019-Dec-11 12:02 270 4 gusting 14 11.1
2019-Dec-11 11:57 268 6 gusting 14 11.1
2019-Dec-11 11:52 264 10 gusting 12 10.6
2019-Dec-11 11:47 284 4 gusting 8 10.6
2019-Dec-11 11:42 271 6 gusting 11 10.6
2019-Dec-11 11:37 267 8 gusting 11 10.6
2019-Dec-11 11:32 247 4 gusting 10 10.6
2019-Dec-11 11:27 267 5 gusting 9 11.1
2019-Dec-11 11:22 261 2 gusting 9 11.1
2019-Dec-11 11:17 265 5 gusting 9 11.1
2019-Dec-11 11:12 253 2 gusting 8 10.6
2019-Dec-11 11:07 268 4 gusting 8 10.6
2019-Dec-11 11:02 247 4 gusting 9 10.6
2019-Dec-11 10:57 267 9 gusting 9 10.6
2019-Dec-11 10:52 271 1 gusting 8 10.6
2019-Dec-11 10:47 255 0 gusting 12 10.6
2019-Dec-11 10:42 264 5 gusting 12 10.6
2019-Dec-11 10:37 287 7 gusting 9 11.1
2019-Dec-11 10:32 271 0 gusting 9 11.1
2019-Dec-11 10:27 264 6 gusting 9 11.1
2019-Dec-11 10:22 265 1 gusting 11 11.1
2019-Dec-11 10:17 268 11 gusting 12 11.1
2019-Dec-11 10:12 264 6 gusting 12 10.6
2019-Dec-11 10:07 270 2 gusting 12 11.1
2019-Dec-11 10:02 237 6 gusting 12 10.6
2019-Dec-11 09:57 271 6 gusting 14 10.6
2019-Dec-11 09:52 013 6 gusting 14 10.6
2019-Dec-11 09:47 268 4 gusting 15 10.6
2019-Dec-11 09:42 275 1 gusting 15 10.6
2019-Dec-11 09:37 270 6 gusting 9 10.6
2019-Dec-11 09:32 268 1 gusting 14 10.6
2019-Dec-11 09:27 264 10 gusting 14 10.6
2019-Dec-11 09:22 049 6 gusting 15 10.6
2019-Dec-11 09:17 268 6 gusting 15 10.6
2019-Dec-11 09:12 277 6 gusting 11 10.6
2019-Dec-11 09:07 268 6 gusting 11 10.6
2019-Dec-11 09:02 089 5 gusting 9 10.6
2019-Dec-11 08:57 270 4 gusting 9 10.0
2019-Dec-11 08:52 018 3 gusting 10 10.0
2019-Dec-11 08:47 257 1 gusting 11 10.0
2019-Dec-11 08:42 264 6 gusting 15 10.0
2019-Dec-11 08:37 090 6 gusting 15 10.0
2019-Dec-11 08:32 239 10 gusting 11 10.0
2019-Dec-11 08:27 206 6 gusting 8 10.0
2019-Dec-11 08:22 268 6 gusting 14 10.0
2019-Dec-11 08:17 263 8 gusting 14 10.0
2019-Dec-11 08:12 271 11 gusting 11 10.0
2019-Dec-11 08:07 268 5 gusting 9 9.4
2019-Dec-11 08:02 267 1 gusting 13 9.4
2019-Dec-11 07:57 265 2 gusting 13 9.4
2019-Dec-11 07:52 161 8 gusting 12 9.4
2019-Dec-11 07:47 263 12 gusting 14 9.4
2019-Dec-11 07:42 268 5 gusting 14 9.4
2019-Dec-11 07:37 265 6 gusting 9 8.9
2019-Dec-11 07:32 267 2 gusting 13 8.9
2019-Dec-11 07:27 268 8 gusting 13 8.9
2019-Dec-11 07:22 246 8.3
2019-Dec-11 07:17 270 8.3
2019-Dec-11 07:12 268 8 gusting 9 8.3
2019-Dec-11 07:07 261 6 gusting 6 8.3
2019-Dec-11 07:02 253 3 gusting 6 8.3
2019-Dec-11 06:57 268 5 gusting 9 8.3
2019-Dec-11 06:52 251 5 gusting 9 8.3
2019-Dec-11 06:47 268 0 gusting 6 8.3
2019-Dec-11 06:42 271 3 gusting 6 8.3
2019-Dec-11 06:37 268 1 gusting 6 8.3
2019-Dec-11 06:32 302 2 gusting 8 8.3
2019-Dec-11 06:27 268 6 gusting 8 8.3
2019-Dec-11 06:22 265 4 gusting 8 8.3
2019-Dec-11 06:17 265 6 gusting 12 8.3
2019-Dec-11 06:12 271 6 gusting 12 8.3
2019-Dec-11 06:07 248 6 gusting 14 8.3
2019-Dec-11 06:02 335 5 gusting 15 8.3
2019-Dec-11 05:57 254 6 gusting 15 8.3
2019-Dec-11 05:52 263 9 gusting 15 7.8
2019-Dec-11 05:47 271 8 gusting 15 8.3
2019-Dec-11 05:42 268 3 gusting 12 8.3
2019-Dec-11 05:37 268 6 gusting 9 8.3
2019-Dec-11 05:32 268 5 gusting 8 8.3
2019-Dec-11 05:27 247 4 gusting 10 8.3
2019-Dec-11 05:22 255 0 gusting 10 8.3
2019-Dec-11 05:17 261 4 gusting 14 8.3
2019-Dec-11 05:12 281 5 gusting 14 8.3
2019-Dec-11 05:07 319 3 gusting 11 8.3
2019-Dec-11 05:02 339 2 gusting 11 8.3
2019-Dec-11 04:57 251 6 gusting 9 8.3
2019-Dec-11 04:52 271 2 gusting 10 8.3
2019-Dec-11 04:47 264 7 gusting 10 8.3
2019-Dec-11 04:42 271 4 gusting 10 7.8
2019-Dec-11 04:37 270 6 gusting 10 7.8
2019-Dec-11 04:32 244 4 gusting 10 7.8
2019-Dec-11 04:27 257 6 gusting 10 7.8
2019-Dec-11 04:22 257 5 gusting 11 7.8
2019-Dec-11 04:17 261 11 gusting 14 7.8
2019-Dec-11 04:12 260 2 gusting 16 7.8
2019-Dec-11 04:07 264 6 gusting 16 7.8
2019-Dec-11 04:02 264 5 gusting 14 7.8
2019-Dec-11 03:57 264 12 gusting 14 7.8
2019-Dec-11 03:52 264 6 gusting 14 7.8
2019-Dec-11 03:47 264 5 gusting 13 7.8
2019-Dec-11 03:42 261 6 gusting 13 7.8
2019-Dec-11 03:37 265 2 gusting 13 7.8
2019-Dec-11 03:32 251 6 gusting 12 7.8
2019-Dec-11 03:27 267 7 gusting 13 7.2
2019-Dec-11 03:22 265 10 gusting 15 7.2
2019-Dec-11 03:17 260 5 gusting 19 7.2
2019-Dec-11 03:12 169 12 gusting 19 7.2
2019-Dec-11 03:07 265 2 gusting 13 7.2
2019-Dec-11 03:02 241 5 gusting 10 7.2
2019-Dec-11 02:57 264 5 gusting 11 7.2
2019-Dec-11 02:52 174 1 gusting 12 7.2
2019-Dec-11 02:47 268 6 gusting 12 7.2
2019-Dec-11 02:42 277 0 gusting 9 7.2
2019-Dec-11 02:37 268 5 gusting 9 7.2
2019-Dec-11 02:32 268 4 gusting 9 7.2
2019-Dec-11 02:27 268 3 gusting 9 7.2
2019-Dec-11 02:22 267 6 gusting 8 7.8
2019-Dec-11 02:17 268 5 gusting 9 7.8
2019-Dec-11 02:12 268 3 gusting 9 7.8
2019-Dec-11 02:07 268 2 gusting 6 7.2
2019-Dec-11 02:02 272 4 gusting 6 7.2
2019-Dec-11 01:57 268 5 gusting 6 7.2
2019-Dec-11 01:52 268 3 gusting 5 7.2
2019-Dec-11 01:47 268 2 gusting 6 7.2
2019-Dec-11 01:42 267 2 gusting 6 7.2
2019-Dec-11 01:37 257 5 gusting 6 7.2
2019-Dec-11 01:32 263 0 gusting 6 7.2
2019-Dec-11 01:27 271 7.2
2019-Dec-11 01:22 267 1 gusting 10 7.2
2019-Dec-11 01:17 251 2 gusting 6 7.8
2019-Dec-11 01:12 267 7.8
2019-Dec-11 01:07 267 7.8
2019-Dec-11 01:02 298 0 gusting 6 7.8
2019-Dec-11 00:57 003 3 gusting 6 7.8
2019-Dec-11 00:52 268 1 gusting 5 7.8
2019-Dec-11 00:47 277 5 gusting 6 8.3
2019-Dec-11 00:42 267 1 gusting 6 8.3
2019-Dec-11 00:37 267 0 gusting 5 8.3
2019-Dec-11 00:32 267 1 gusting 8 7.8
2019-Dec-11 00:27 267 7.8
2019-Dec-11 00:22 267 6 gusting 6 7.8
2019-Dec-11 00:17 271 4 gusting 8 7.8
2019-Dec-11 00:12 267 4 gusting 8 7.8
2019-Dec-11 00:07 267 2 gusting 6 7.2
2019-Dec-11 00:02 267 2 gusting 8 7.8
2019-Dec-10 23:57 268 4 gusting 9 7.2
2019-Dec-10 23:52 267 2 gusting 12 7.8
2019-Dec-10 23:47 020 6 gusting 12 8.3
2019-Dec-10 23:42 296 2 gusting 9 8.3
2019-Dec-10 23:37 137 1 gusting 6 7.8
2019-Dec-10 23:22 268 8.3
2019-Dec-10 23:17 268 1 gusting 6 8.3
2019-Dec-10 23:12 268 1 gusting 6 7.8
2019-Dec-10 23:07 268 7.8
2019-Dec-10 23:02 268 2 gusting 3 7.8
2019-Dec-10 22:57 268 8.3
2019-Dec-10 22:52 268 8.3
2019-Dec-10 22:47 268 8.3
2019-Dec-10 22:42 267 1 gusting 5 8.3
2019-Dec-10 22:37 268 8.3
2019-Dec-10 22:32 268 8.3
2019-Dec-10 22:27 268 8.3
2019-Dec-10 22:22 270 0 gusting 4 8.3
2019-Dec-10 22:17 263 1 gusting 4 8.3
2019-Dec-10 22:12 239 8.3
2019-Dec-10 22:07 240 8.3
2019-Dec-10 22:02 322 8.3
2019-Dec-10 21:57 117 8.3
2019-Dec-10 21:52 289 8.3
2019-Dec-10 21:47 271 8.9
2019-Dec-10 21:42 120 8.9
2019-Dec-10 21:37 267 2 gusting 9 8.3
2019-Dec-10 21:32 055 6 gusting 10 8.3
2019-Dec-10 21:27 246 4 gusting 10 8.3
2019-Dec-10 21:22 263 2 gusting 6 8.3
2019-Dec-10 21:17 271 2 gusting 6 8.3
2019-Dec-10 21:12 267 4 gusting 6 8.3
2019-Dec-10 21:07 265 8.3
2019-Dec-10 21:02 312 1 gusting 8 8.3
2019-Dec-10 20:57 257 4 gusting 8 8.3
2019-Dec-10 20:52 253 1 gusting 6 8.3
2019-Dec-10 20:50 270 2 gusting 10 8.3
2019-Dec-10 20:22 270 1 gusting 8 8.3
2019-Dec-10 20:17 255 0 gusting 8 8.3
2019-Dec-10 20:12 258 0 gusting 8 7.8
2019-Dec-10 20:07 268 2 gusting 6 7.8
2019-Dec-10 20:02 268 1 gusting 6 7.8
2019-Dec-10 19:57 202 1 gusting 6 7.8
2019-Dec-10 19:52 246 7.8
2019-Dec-10 19:47 271 2 gusting 6 7.8
2019-Dec-10 19:42 268 4 gusting 6 7.8
2019-Dec-10 19:37 265 1 gusting 6 8.3
2019-Dec-10 19:32 251 5 gusting 6 8.3
2019-Dec-10 19:27 011 8.3
2019-Dec-10 19:22 192 6 gusting 7 8.3
2019-Dec-10 19:17 258 2 gusting 9 8.3
2019-Dec-10 19:12 263 6 gusting 9 8.3
2019-Dec-10 19:07 268 5 gusting 8 8.3
2019-Dec-10 19:02 270 1 gusting 6 8.3
2019-Dec-10 18:57 268 8.3
2019-Dec-10 18:52 268 4 gusting 6 8.3
2019-Dec-10 18:47 270 2 gusting 5 8.3
2019-Dec-10 18:42 271 5 gusting 5 8.3
2019-Dec-10 18:37 268 2 gusting 5 8.3
2019-Dec-10 18:32 268 1 gusting 5 8.3
2019-Dec-10 18:27 268 8.3
2019-Dec-10 18:22 260 8.3
2019-Dec-10 18:17 270 8.3
2019-Dec-10 18:12 268 8.3
2019-Dec-10 18:07 255 0 gusting 2 7.8
2019-Dec-10 18:02 257 7.8
2019-Dec-10 17:57 271 7.8
2019-Dec-10 17:52 270 7.8
2019-Dec-10 17:47 270 7.8
2019-Dec-10 17:42 267 7.8
2019-Dec-10 17:37 270 8.3
2019-Dec-10 17:32 270 2 gusting 3 8.3
2019-Dec-10 17:27 270 0 gusting 3 8.3
2019-Dec-10 17:22 270 8.3
2019-Dec-10 17:17 270 0 gusting 6 8.3
2019-Dec-10 17:12 270 2 gusting 6 8.3
2019-Dec-10 17:07 270 8.3
2019-Dec-10 17:02 270 2 gusting 3 8.3
2019-Dec-10 16:57 270 8.3
2019-Dec-10 16:52 271 0 gusting 5 8.3
2019-Dec-10 16:47 270 1 gusting 4 8.3
2019-Dec-10 16:42 270 8.3
2019-Dec-10 16:37 257 8.3
2019-Dec-10 16:32 270 8.3
2019-Dec-10 16:27 268 8.3
2019-Dec-10 16:22 270 8.3
2019-Dec-10 16:17 270 8.3
2019-Dec-10 16:12 270 0 gusting 5 8.3
2019-Dec-10 16:07 270 8.3
2019-Dec-10 16:02 239 8.3
2019-Dec-10 15:57 270 8.3
2019-Dec-10 15:52 270 8.3
2019-Dec-10 15:47 270 8.3
2019-Dec-10 15:42 270 5 gusting 5 8.3
2019-Dec-10 15:37 243 2 gusting 5 7.8
2019-Dec-10 15:32 270 5 gusting 5 7.8
2019-Dec-10 15:27 270 8.3
2019-Dec-10 15:22 268 1 gusting 5 8.3
2019-Dec-10 15:17 270 2 gusting 6 8.3
2019-Dec-10 15:12 270 5 gusting 6 8.9
2019-Dec-10 15:07 261 8.9
2019-Dec-10 15:02 264 9.4
2019-Dec-10 14:57 244 9.4
2019-Dec-10 14:52 205 9.4
2019-Dec-10 14:47 216 9.4
2019-Dec-10 14:42 213 9.4
2019-Dec-10 14:37 267 9.4
2019-Dec-10 14:32 270 9.4
2019-Dec-10 14:27 219 10.0
2019-Dec-10 14:22 172 10.0
2019-Dec-10 14:17 270 10.0
2019-Dec-10 14:12 243 10.6
2019-Dec-10 14:07 192 10.6
2019-Dec-10 14:02 216 10.6
2019-Dec-10 13:57 247 10.6
2019-Dec-10 13:52 246 10.6
2019-Dec-10 13:47 234 10.6
2019-Dec-10 13:42 200 10.6
2019-Dec-10 13:37 188 10.6
2019-Dec-10 13:32 171 10.6
2019-Dec-10 13:27 171 10.6
2019-Dec-10 13:22 175 10.6
2019-Dec-10 13:17 176 10.6
2019-Dec-10 13:12 258 10.6
2019-Dec-10 13:07 215 10.0
2019-Dec-10 13:02 216 10.0
2019-Dec-10 12:57 270 9.4
2019-Dec-10 12:52 219 9.4
2019-Dec-10 12:47 257 8.9
2019-Dec-10 12:42 261 8.9
2019-Dec-10 12:37 267 8.9
2019-Dec-10 12:32 263 8.3
2019-Dec-10 12:27 267 8.3
2019-Dec-10 12:22 263 8.3
2019-Dec-10 12:17 264 8.3
2019-Dec-10 12:12 270 0 gusting 6 8.9
2019-Dec-10 12:07 270 9.4
2019-Dec-10 12:02 270 9.4
2019-Dec-10 11:57 270 9.4
2019-Dec-10 11:52 270 9.4
2019-Dec-10 11:47 217 9.4
2019-Dec-10 11:42 268 9.4
2019-Dec-10 11:37 189 9.4
2019-Dec-10 11:32 268 9.4
2019-Dec-10 11:27 178 9.4
2019-Dec-10 11:22 257 9.4
2019-Dec-10 11:17 268 10.0
2019-Dec-10 11:12 207 10.0
2019-Dec-10 11:07 268 10.0
2019-Dec-10 11:02 213 10.0
2019-Dec-10 10:57 271 10.0
2019-Dec-10 10:52 251 10.0
2019-Dec-10 10:47 268 10.0
2019-Dec-10 10:42 244 10.0
2019-Dec-10 10:37 268 4 gusting 4 10.0
2019-Dec-10 10:32 270 9.4
2019-Dec-10 10:27 270 9.4
2019-Dec-10 10:22 270 9.4
2019-Dec-10 10:17 241 9.4
2019-Dec-10 10:12 270 9.4
2019-Dec-10 10:07 270 9.4
2019-Dec-10 10:02 188 9.4
2019-Dec-10 09:57 176 9.4
2019-Dec-10 09:52 183 4 gusting 6 9.4
2019-Dec-10 09:47 268 1 gusting 5 9.4
2019-Dec-10 09:42 270 9.4
2019-Dec-10 09:37 195 9.4
2019-Dec-10 09:32 202 8.9
2019-Dec-10 09:27 268 9.4
2019-Dec-10 09:22 268 2 gusting 11 9.4
2019-Dec-10 09:17 270 5 gusting 11 9.4
2019-Dec-10 09:12 271 10.0
2019-Dec-10 09:07 231 2 gusting 2 10.0
2019-Dec-10 09:02 237 9.4
2019-Dec-10 08:57 268 4 gusting 6 9.4
2019-Dec-10 08:52 271 1 gusting 6 9.4
2019-Dec-10 08:47 248 0 gusting 6 9.4
2019-Dec-10 08:42 220 2 gusting 5 9.4
2019-Dec-10 08:37 270 9.4
2019-Dec-10 08:32 268 0 gusting 5 9.4
2019-Dec-10 08:27 234 9.4
2019-Dec-10 08:22 248 1 gusting 9 10.0
2019-Dec-10 08:17 199 9.4
2019-Dec-10 08:12 205 9.4
2019-Dec-10 08:07 260 9.4
2019-Dec-10 08:02 268 2 gusting 6 9.4
2019-Dec-10 07:57 268 0 gusting 6 8.9
2019-Dec-10 07:52 268 3 gusting 6 8.9
2019-Dec-10 07:47 154 0 gusting 6 8.9
2019-Dec-10 07:42 267 8.9
2019-Dec-10 07:37 268 6 gusting 10 8.9
2019-Dec-10 07:32 233 2 gusting 10 8.9
2019-Dec-10 07:27 255 8.9
2019-Dec-10 07:22 268 6 gusting 8 8.9
2019-Dec-10 07:17 308 4 gusting 8 8.3
2019-Dec-10 07:12 265 4 gusting 5 8.3
2019-Dec-10 07:07 202 8.3
2019-Dec-10 07:02 162 0 gusting 5 8.3
2019-Dec-10 06:57 268 1 gusting 5 8.3
2019-Dec-10 06:52 255 0 gusting 5 8.3
2019-Dec-10 06:47 267 8.3
2019-Dec-10 06:42 219 6 gusting 6 8.3
2019-Dec-10 06:37 268 1 gusting 6 8.3
2019-Dec-10 06:32 159 8.3
2019-Dec-10 06:27 264 4 gusting 5 8.3
2019-Dec-10 06:22 267 2 gusting 6 8.3
2019-Dec-10 06:17 250 6 gusting 6 8.3
2019-Dec-10 06:12 241 8.3
2019-Dec-10 06:07 267 8.3
2019-Dec-10 06:02 260 8.3
2019-Dec-10 05:57 267 8.3
2019-Dec-10 05:52 267 2 gusting 5 8.3
2019-Dec-10 05:47 267 5 gusting 5 8.3
2019-Dec-10 05:42 267 8.3
2019-Dec-10 05:37 267 8.3
2019-Dec-10 05:32 261 8.3
2019-Dec-10 05:27 255 8.3
2019-Dec-10 05:22 248 7.8
2019-Dec-10 05:17 267 7.8
2019-Dec-10 05:12 193 7.8
2019-Dec-10 05:07 267 7.8
2019-Dec-10 05:02 267 7.8
2019-Dec-10 04:57 154 7.8
2019-Dec-10 04:52 258 7.8
2019-Dec-10 04:47 267 7.8
2019-Dec-10 04:42 278 7.8
2019-Dec-10 04:37 255 7.8
2019-Dec-10 04:32 260 7.8
2019-Dec-10 04:27 261 7.8
2019-Dec-10 04:22 257 0 gusting 3 8.3
2019-Dec-10 04:17 339 8.3
2019-Dec-10 04:12 219 1 gusting 5 8.3
2019-Dec-10 04:07 255 8.3
2019-Dec-10 04:02 265 2 gusting 8 8.3
2019-Dec-10 03:57 216 1 gusting 8 8.3
2019-Dec-10 03:52 267 1 gusting 6 8.3
2019-Dec-10 03:47 206 1 gusting 6 8.3
2019-Dec-10 03:42 267 8.3
2019-Dec-10 03:37 267 0 gusting 9 8.3
2019-Dec-10 03:32 213 9 gusting 9 8.3
2019-Dec-10 03:27 263 0 gusting 6 8.3
2019-Dec-10 03:22 264 2 gusting 10 8.3
2019-Dec-10 03:17 165 1 gusting 10 8.3
2019-Dec-10 03:12 265 2 gusting 6 8.3
2019-Dec-10 03:07 264 1 gusting 6 8.9
2019-Dec-10 03:02 263 6 gusting 6 8.9
2019-Dec-10 02:57 195 3 gusting 6 8.9
2019-Dec-10 02:52 265 2 gusting 8 8.9
2019-Dec-10 02:47 229 0 gusting 8 8.9
2019-Dec-10 02:42 255 5 gusting 6 8.9
2019-Dec-10 02:37 265 8.9
2019-Dec-10 02:32 261 8.9
2019-Dec-10 02:27 212 1 gusting 6 8.9
2019-Dec-10 02:22 250 4 gusting 5 8.9
2019-Dec-10 02:17 265 0 gusting 5 8.9
2019-Dec-10 02:12 265 8.9
2019-Dec-10 02:07 240 4 gusting 6 8.9
2019-Dec-10 02:02 254 2 gusting 6 8.9
2019-Dec-10 01:57 247 8.9
2019-Dec-10 01:52 135 1 gusting 4 8.9
2019-Dec-10 01:47 234 1 gusting 13 8.9
2019-Dec-10 01:42 191 1 gusting 13 8.9
2019-Dec-10 01:37 264 0 gusting 5 8.9
2019-Dec-10 01:32 264 1 gusting 5 8.9
2019-Dec-10 01:27 265 2 gusting 5 8.9
2019-Dec-10 01:22 202 0 gusting 5 8.9
2019-Dec-10 01:17 222 8.9
2019-Dec-10 01:12 250 8.9
2019-Dec-10 01:07 261 0 gusting 6 8.9
2019-Dec-10 01:02 257 2 gusting 6 8.9
2019-Dec-10 00:57 243 8.9
2019-Dec-10 00:52 265 2 gusting 5 8.9
2019-Dec-10 00:47 224 8.9
2019-Dec-10 00:42 265 3 gusting 6 8.9
2019-Dec-10 00:37 226 8.9
2019-Dec-10 00:32 265 8.9
2019-Dec-10 00:27 263 4 gusting 6 8.9
2019-Dec-10 00:22 246 4 gusting 6 8.9
2019-Dec-10 00:17 255 5 gusting 6 8.9
2019-Dec-10 00:12 265 0 gusting 10 8.9
2019-Dec-10 00:07 257 8.9
2019-Dec-10 00:02 326 1 gusting 9 8.9
2019-Dec-09 23:57 069 8.9
2019-Dec-09 23:52 191 0 gusting 9 8.9
2019-Dec-09 23:47 150 2 gusting 6 8.9
2019-Dec-09 23:42 265 1 gusting 5 8.9
2019-Dec-09 23:37 243 9.4
2019-Dec-09 23:32 261 6 gusting 6 9.4
2019-Dec-09 23:27 264 6 gusting 6 9.4
2019-Dec-09 23:22 241 4 gusting 6 9.4
2019-Dec-09 23:17 172 4 gusting 6 9.4
2019-Dec-09 23:12 265 1 gusting 6 9.4
2019-Dec-09 23:07 230 9.4
2019-Dec-09 23:02 267 5 gusting 10 9.4
2019-Dec-09 22:57 215 1 gusting 10 9.4
2019-Dec-09 22:52 255 2 gusting 6 9.4
2019-Dec-09 22:47 264 9.4
2019-Dec-09 22:42 265 9.4
2019-Dec-09 22:37 267 0 gusting 6 9.4
2019-Dec-09 22:32 265 1 gusting 5 9.4
2019-Dec-09 22:27 265 10.0
2019-Dec-09 22:22 147 10.0
2019-Dec-09 22:17 265 10.0
2019-Dec-09 22:12 265 2 gusting 4 10.0
2019-Dec-09 22:07 258 10.0
2019-Dec-09 22:02 264 0 gusting 5 10.0